Temp
15 15 15 15 15 14 14 13 13 13 13 13 13 13 13 13 12 12 12 12 12 11 11 11 11 11 11 11 12 12 12 12 12 12 12 12 12 13 13 13 13 13 13 12 11 11 11 11 11 11 11 11 11 11 11 11 11 11 11 11 10 10 10 10 10 10 10 9 10
15 15 15 15 15 14 14 13 13 13 13 12 12 12 12 12 12 12 12 12 12 12 12 11 11 11 11 11 11 11 11 11 11 11 12 12 12 12 12 12 12 12 12 11 11 10 10 11 11 11 11 11 11 11 11 11 11 10 11 11 10 10 10 10 9 9 9 9 9
14 14 14 14 14 14 14 13 13 12 12 12 12 12 12 12 12 12 12 12 12 12 12 12 11 11 11 11 11 11 11 11 11 11 11 11 11 11 12 12 12 12 12 11 11 10 10 11 11 10 10 10 10 10 10 11 11 11 11 11 11 11 10 10 9 9 9 9 9
13 13 13 13 13 13 13 13 13 12 12 12 12 12 12 12 12 12 12 12 12 12 11 11 11 11 11 11 11 11 11 11 11 11 11 11 11 11 11 11 12 12 12 11 11 10 10 10 10 10 10 10 10 10 10 11 11 10 10 11 11 11 11 10 10 9 9 9 8
13 13 13 13 13 13 13 13 13 12 12 12 12 12 12 12 12 12 12 12 12 11 11 11 11 11 11 11 11 11 11 10 10 10 10 10 10 10 10 11 11 11 11 11 11 10 10 10 10 10 10 10 10 10 10 10 10 10 10 10 10 10 10 10 10 9 9 8 8
13 13 13 13 13 13 13 13 13 13 12 12 12 11 11 11 11 11 11 11 11 11 11 11 11 11 10 10 10 10 10 10 10 10 10 10 10 10 10 10 10 11 11 11 11 11 10 10 10 10 10 10 10 10 10 10 10 9 10 10 10 9 9 10 9 9 8 8 7
13 13 13 13 13 12 12 12 12 12 12 13 12 12 12 11 11 11 11 11 11 11 11 11 11 11 11 10 10 10 10 10 10 10 10 10 10 10 10 10 10 11 11 11 11 11 11 10 10 10 10 10 10 11 11 10 10 9 10 10 10 10 9 9 9 8 8 7 7
12 12 12 12 12 12 12 12 12 12 12 12 12 12 12 12 11 11 11 11 11 11 11 11 11 11 11 10 10 10 10 10 10 10 10 11 11 11 11 11 11 11 11 11 11 11 10 10 10 10 10 11 11 11 11 10 10 10 10 10 10 9 9 9 8 8 7 7 7
12 12 12 12 12 12 12 12 12 12 12 12 12 12 12 12 12 12 11 11 11 11 11 11 12 12 11 11 10 10 10 10 10 10 10 10 10 10 11 11 11 11 11 11 11 10 10 10 10 10 10 10 11 11 10 10 10 10 9 9 9 9 9 8 8 7 7 7 7
12 12 12 12 12 12 12 12 12 12 12 12 12 12 12 12 12 12 12 12 12 12 12 11 11 11 11 10 10 10 10 9 9 9 10 10 10 10 10 10 10 10 10 10 10 10 10 10 10 10 10 10 10 10 10 9 9 9 9 9 9 9 8 8 7 7 6 6 6
11 11 12 12 12 12 12 12 12 12 12 12 12 12 12 12 12 12 12 12 12 12 12 12 11 11 10 10 10 10 10 9 9 9 9 9 9 10 10 10 10 10 10 10 10 10 10 10 10 10 10 10 10 9 9 9 8 8 8 8 8 8 8 7 7 6 6 6 6
11 11 11 11 11 11 11 11 11 11 12 12 12 12 12 12 12 12 12 12 12 12 12 12 12 11 10 10 10 10 10 9 9 9 9 9 9 9 9 10 10 10 10 10 10 10 10 10 10 10 10 9 9 9 8 8 8 8 8 8 8 7 7 6 6 6 6 6 5
11 11 11 11 11 11 11 11 11 11 11 11 11 11 11 11 12 12 12 12 12 12 12 12 11 11 10 10 10 9 9 9 9 8 9 9 9 9 9 9 9 9 9 9 10 10 10 10 10 9 9 9 8 8 8 8 8 8 8 7 7 6 6 6 6 5 5 5 5
10 10 10 10 11 11 11 11 11 11 11 11 11 11 11 11 11 11 11 12 12 12 12 11 11 10 10 9 9 9 9 9 8 8 9 9 9 9 9 9 9 9 9 9 9 9 9 9 9 9 8 8 8 8 8 7 7 7 7 6 6 6 5 5 5 5 5 5 5
10 10 10 10 10 10 10 10 10 10 10 10 10 10 10 10 10 11 11 11 11 11 11 11 10 10 9 9 8 8 8 8 8 8 9 9 9 9 9 9 9 9 9 9 9 9 9 9 8 8 8 8 7 7 7 7 6 6 6 5 5 5 5 5 5 4 4 4 4
10 10 10 10 10 10 10 10 10 10 10 10 10 10 10 10 10 10 10 10 11 11 11 11 10 10 9 8 8 8 8 8 8 8 9 9 9 9 9 9 9 9 9 9 9 9 8 8 8 7 7 7 7 6 6 6 6 5 5 5 4 4 4 4 4 4 4 3 3
9 9 9 9 10 10 10 9 9 9 9 9 9 10 10 10 10 10 9 10 10 10 11 11 10 9 9 9 9 8 8 9 9 9 9 9 9 9 9 9 9 9 9 8 8 8 8 7 7 7 7 6 6 6 5 5 5 5 4 4 4 4 3 3 3 3 2 2 2
9 9 9 9 9 9 9 9 9 9 9 9 9 9 9 9 9 9 9 9 9 9 10 10 10 10 9 9 9 9 9 9 9 8 8 9 9 9 9 8 8 8 8 8 8 7 7 7 7 6 6 6 6 5 5 5 4 4 4 4 3 3 3 2 2 2 1 1 1
9 9 9 9 9 9 9 9 9 9 9 8 8 8 8 8 8 8 8 8 8 9 9 9 10 10 10 9 9 9 9 8 8 8 8 8 8 8 8 8 8 8 8 7 7 7 6 6 6 6 6 5 5 5 4 4 4 3 3 3 2 2 2 1 1 1 1 1 1
9 9 9 9 9 9 8 8 8 8 8 8 8 8 8 8 7 7 7 7 8 8 8 8 8 8 9 9 9 9 8 8 8 8 8 8 8 8 7 7 7 7 7 6 6 6 6 5 5 5 5 5 4 4 4 3 3 3 2 2 1 1 1 1 0 0 0 1 1
8 8 8 8 8 8 8 8 8 8 7 7 7 7 7 7 7 6 6 6 7 7 7 7 7 7 7 8 8 8 8 8 8 8 8 8 7 7 7 7 6 6 6 5 5 5 5 5 5 4 4 4 4 3 3 3 2 2 1 1 1 0 0 0 0 0 0 1 1
8 8 8 8 8 8 7 7 7 7 7 7 7 6 6 6 6 6 6 6 6 6 6 6 6 7 7 7 7 7 8 8 8 8 8 7 7 7 6 6 5 5 5 5 5 5 4 4 4 4 4 3 3 3 2 2 1 1 1 0 0 0 0 0 0 0 0 0 1
7 7 7 7 7 7 7 7 6 6 6 6 6 6 6 6 6 6 6 6 6 6 6 7 7 7 7 7 7 7 7 7 7 7 7 6 6 6 5 5 5 5 4 4 4 4 4 4 3 3 3 3 2 2 1 1 1 0 0 0 0 0 1 0 0 0 0 0 1
6 6 6 6 6 6 6 6 6 6 6 6 6 6 6 6 6 6 6 6 6 6 6 6 7 7 7 7 7 7 7 6 6 6 6 5 5 5 5 4 4 4 4 4 3 3 3 3 3 3 2 2 1 1 1 0 0 0 0 1 1 1 0 0 0 0 0 0 1
5 5 6 6 6 6 6 6 6 6 6 6 6 6 6 6 6 6 5 6 6 6 6 6 6 6 6 6 6 6 6 6 5 5 4 4 4 4 4 4 4 4 3 3 3 3 2 2 2 2 2 1 1 0 0 0 0 0 0 0 0 0 0 0 0 0 0 1 1
4 5 5 5 5 5 5 5 5 5 5 5 5 5 5 5 5 5 5 5 5 5 5 5 5 5 5 5 5 5 5 4 4 4 3 3 3 3 3 3 3 3 3 3 2 2 2 2 1 1 1 1 1 0 0 0 0 0 0 0 0 0 0 0 0 0 0 0 0
4 4 4 4 4 4 4 4 5 5 5 5 5 5 5 4 4 4 4 4 4 4 4 4 4 4 4 4 4 4 3 3 3 3 3 3 3 3 3 3 3 2 2 2 2 1 1 1 1 1 0 0 0 0 0 0 0 -0 -0 -0 0 0 0 0 0 0 0 0 0
3 3 3 3 3 3 3 4 4 4 4 4 4 4 4 4 4 4 4 3 3 3 3 3 3 3 3 3 3 3 3 3 2 2 2 2 2 2 2 2 2 2 2 1 1 1 1 0 0 0 -0 0 0 0 0 -0 -0 -0 -0 -0 -0 0 0 0 0 -0 -0 -0 -0
2 2 2 2 2 3 3 3 3 4 4 3 3 3 3 3 3 3 3 3 3 3 3 2 2 2 3 2 2 2 2 2 2 2 1 1 1 1 1 1 1 1 0 0 0 0 0 -0 -0 -0 -0 -0 -0 -0 -0 -0 -0 -0 -0 -0 -0 -0 -0 -0 -0 -0 -0 -0 -0
1 1 1 2 2 2 2 2 2 3 3 3 3 3 2 2 2 2 2 2 2 2 2 2 2 2 2 2 2 2 1 1 1 1 0 0 -0 -0 -0 -0 -1 -1 -1 -1 -0 -0 -0 -1 -1 -1 -1 -1 -1 -0 -0 -0 -0 -0 -0 -0 -0 -0 -0 -0 -0 -0 -0 -0 -1
0 1 1 1 1 1 1 2 2 2 2 2 2 2 2 2 2 2 2 2 2 2 2 2 2 2 1 1 1 1 1 0 0 -0 -1 -1 -1 -1 -1 -2 -2 -2 -2 -1 -1 -1 -1 -1 -1 -1 -1 -1 -1 -1 -1 -0 -0 -0 -0 -0 -0 -0 -0 -0 -1 -1 -1 -0 -0
-0 -0 0 0 1 1 1 1 1 1 1 1 1 1 1 1 1 1 1 1 1 1 1 1 1 1 1 1 0 0 -0 -0 -1 -1 -1 -1 -1 -2 -2 -2 -2 -2 -2 -1 -1 -1 -1 -1 -1 -1 -1 -1 -1 -1 -1 -1 -1 -1 -0 -0 -1 -1 -1 -1 -0 -0 -0 -0 -0
-1 -0 -0 0 0 0 1 1 1 1 1 1 1 1 1 1 1 1 1 1 1 1 1 1 1 0 0 -0 -0 -1 -1 -1 -1 -1 -1 -1 -1 -1 -1 -2 -2 -2 -2 -2 -1 -1 -1 -1 -1 -1 -1 -1 -1 -1 -1 -1 -1 -1 -1 -1 -1 -1 -0 -0 -0 -0 -1 -1 -1
-0 -0 -0 0 0 0 0 1 1 1 1 1 1 1 1 1 1 1 1 1 1 1 1 0 0 -0 -0 -0 -1 -1 -1 -1 -1 -1 -1 -1 -1 -1 -1 -2 -2 -2 -2 -2 -2 -2 -2 -1 -1 -1 -1 -1 -1 -1 -1 -1 -1 -1 -1 -1 -0 -0 -0 -0 -1 -1 -1 -1 -1
-0 -0 -0 -0 0 0 0 0 0 0 1 1 0 0 0 0 0 0 -0 -0 0 0 0 -0 -0 -1 -1 -1 -1 -1 -1 -1 -2 -2 -2 -1 -1 -2 -2 -2 -2 -2 -2 -2 -2 -2 -1 -1 -1 -1 -1 -1 -1 -1 -1 -1 -1 -1 -1 -1 -1 -1 -1 -1 -1 -1 -1 -1 -1
-1 -1 -0 -0 -0 -0 0 0 0 0 0 0 0 -0 -0 -0 -0 -1 -1 -1 -1 -1 -1 -1 -1 -1 -1 -1 -1 -2 -2 -2 -2 -2 -2 -2 -2 -2 -2 -2 -2 -2 -2 -2 -2 -1 -1 -1 -1 -1 -1 -1 -1 -1 -1 -1 -1 -1 -1 -1 -1 -1 -1 -1 -1 -1 -1 -2 -2
-1 -1 -1 -1 -1 -0 -0 -0 -0 -0 -0 -0 -0 -0 -1 -1 -1 -1 -1 -1 -1 -1 -1 -1 -1 -1 -1 -2 -2 -2 -2 -2 -2 -2 -2 -2 -2 -2 -2 -2 -2 -2 -2 -2 -1 -1 -1 -1 -1 -1 -1 -1 -1 -1 -1 -1 -1 -1 -1 -1 -1 -1 -1 -1 -2 -2 -2 -2 -2
-2 -1 -1 -1 -1 -1 -1 -1 -1 -1 -1 -1 -1 -1 -1 -1 -1 -1 -1 -1 -1 -1 -1 -1 -2 -2 -2 -2 -2 -2 -2 -2 -2 -2 -2 -2 -2 -2 -2 -1 -1 -1 -1 -1 -1 -1 -1 -1 -1 -1 -1 -1 -1 -1 -1 -1 -1 -1 -1 -1 -1 -2 -2 -2 -3 -3 -3 -3 -3
-2 -2 -2 -1 -1 -1 -1 -1 -1 -1 -1 -1 -1 -1 -1 -1 -1 -1 -1 -1 -1 -1 -1 -1 -2 -2 -2 -2 -2 -2 -2 -2 -2 -2 -2 -2 -2 -2 -2 -1 -1 -1 -1 -1 -1 -1 -1 -1 -1 -1 -1 -1 -1 -1 -1 -1 -1 -1 -2 -2 -2 -3 -3 -3 -3 -4 -4 -4 -4
-2 -2 -2 -2 -2 -1 -1 -1 -1 -1 -1 -1 -1 -1 -1 -1 -1 -1 -1 -1 -1 -1 -1 -1 -1 -2 -2 -2 -2 -2 -2 -2 -2 -2 -2 -2 -2 -2 -2 -1 -1 -1 -1 -1 -1 -1 -1 -1 -1 -1 -1 -1 -1 -1 -1 -2 -2 -2 -2 -3 -3 -3 -4 -4 -4 -4 -4 -4 -4
-2 -2 -2 -1 -1 -1 -1 -1 -1 -1 -1 -1 -1 -1 -1 -1 -1 -1 -1 -1 -1 -1 -1 -1 -2 -2 -2 -2 -2 -2 -2 -2 -2 -2 -2 -2 -2 -2 -2 -1 -1 -1 -1 -1 -1 -1 -1 -1 -1 -1 -2 -2 -2 -2 -2 -2 -3 -3 -3 -4 -4 -4 -4 -5 -5 -5 -4 -4 -4
Height
1478 1478 1478 1478 1479 1479 1479 1480 1480 1480 1481 1481 1481 1482 1482 1482 1482 1482 1482 1482 1482 1482 1482 1482 1482 1482 1482 1482 1482 1483 1483 1483 1483 1483 1483 1483 1483 1484 1484 1484 1485 1485 1485 1484 1484 1484 1485 1485 1485 1486 1486 1486 1487 1487 1487 1488 1488 1488 1488 1488 1489 1491 1492 1492 1492 1492 1493 1493 1493
1476 1477 1477 1477 1477 1478 1478 1478 1478 1479 1479 1479 1480 1480 1480 1481 1481 1481 1481 1481 1481 1481 1481 1481 1481 1481 1480 1480 1480 1481 1481 1481 1481 1481 1481 1482 1482 1482 1482 1483 1483 1483 1483 1483 1483 1483 1483 1483 1483 1484 1484 1484 1485 1485 1485 1485 1486 1486 1486 1487 1488 1489 1490 1489 1489 1490 1490 1491 1491
1475 1476 1476 1476 1476 1476 1477 1477 1477 1478 1478 1478 1479 1479 1479 1479 1479 1479 1479 1479 1479 1480 1480 1480 1480 1479 1479 1478 1478 1478 1479 1479 1479 1479 1480 1480 1480 1481 1481 1481 1481 1481 1482 1482 1481 1481 1481 1481 1482 1482 1482 1483 1483 1483 1483 1483 1483 1484 1484 1485 1486 1487 1487 1487 1488 1488 1488 1488 1488
1475 1475 1475 1475 1475 1475 1476 1476 1476 1477 1478 1478 1478 1478 1478 1478 1478 1478 1478 1478 1478 1478 1478 1478 1478 1478 1478 1477 1476 1477 1477 1477 1478 1478 1478 1478 1478 1479 1479 1479 1479 1479 1480 1480 1480 1480 1480 1480 1480 1480 1481 1481 1481 1481 1481 1481 1481 1482 1483 1483 1484 1484 1485 1485 1486 1486 1486 1486 1486
1474 1474 1474 1474 1474 1475 1475 1475 1475 1476 1476 1477 1477 1477 1477 1477 1477 1476 1477 1477 1477 1477 1477 1477 1477 1476 1475 1475 1475 1475 1475 1476 1476 1476 1476 1476 1477 1477 1478 1478 1478 1478 1478 1478 1478 1478 1479 1479 1479 1479 1479 1479 1479 1479 1478 1478 1480 1481 1482 1482 1482 1482 1482 1483 1483 1484 1484 1484 1484
1473 1473 1473 1474 1474 1474 1474 1474 1474 1474 1474 1475 1475 1475 1476 1476 1475 1475 1475 1475 1475 1475 1475 1475 1475 1474 1473 1473 1474 1474 1474 1474 1474 1474 1474 1475 1475 1475 1476 1476 1476 1477 1477 1477 1477 1478 1478 1478 1478 1478 1478 1478 1477 1477 1476 1477 1478 1479 1480 1480 1480 1480 1480 1480 1481 1482 1482 1482 1483
1473 1473 1473 1473 1473 1473 1473 1473 1473 1473 1473 1473 1474 1474 1474 1474 1474 1474 1474 1473 1473 1473 1473 1473 1473 1472 1472 1472 1473 1473 1473 1473 1473 1473 1473 1473 1473 1474 1474 1475 1475 1475 1476 1476 1476 1476 1476 1475 1476 1476 1476 1476 1476 1475 1475 1475 1476 1477 1477 1477 1477 1478 1478 1478 1479 1479 1480 1480 1480
1472 1472 1473 1473 1473 1473 1473 1473 1473 1473 1473 1473 1473 1473 1473 1473 1473 1472 1472 1472 1472 1472 1471 1470 1470 1470 1470 1471 1471 1472 1472 1472 1472 1472 1472 1472 1472 1473 1473 1474 1474 1474 1474 1474 1474 1473 1473 1474 1474 1474 1474 1474 1473 1473 1473 1474 1474 1474 1475 1475 1475 1476 1476 1476 1477 1477 1478 1478 1478
1472 1472 1472 1472 1472 1472 1472 1472 1472 1472 1472 1472 1472 1472 1472 1472 1472 1471 1471 1470 1470 1470 1469 1468 1468 1468 1469 1469 1470 1470 1470 1470 1470 1470 1470 1471 1471 1472 1472 1473 1473 1472 1472 1472 1473 1473 1473 1473 1473 1473 1472 1472 1472 1472 1472 1472 1472 1472 1473 1473 1473 1474 1474 1474 1475 1475 1475 1476 1476
1471 1470 1470 1471 1471 1471 1471 1471 1471 1471 1471 1471 1471 1471 1471 1471 1471 1471 1470 1469 1468 1468 1468 1467 1467 1467 1467 1468 1468 1468 1469 1468 1468 1469 1469 1470 1470 1470 1471 1471 1471 1471 1471 1471 1472 1471 1471 1471 1471 1470 1470 1470 1470 1470 1470 1470 1470 1471 1471 1471 1472 1472 1472 1473 1473 1473 1473 1474 1474
1469 1469 1469 1469 1469 1470 1470 1470 1470 1470 1470 1470 1470 1470 1470 1470 1470 1469 1469 1468 1468 1467 1467 1466 1466 1466 1466 1466 1467 1467 1467 1467 1467 1468 1468 1468 1469 1469 1469 1469 1470 1470 1470 1470 1469 1469 1468 1468 1468 1468 1468 1468 1468 1468 1468 1468 1469 1469 1469 1469 1469 1470 1470 1470 1471 1471 1472 1472 1473
1468 1468 1468 1468 1468 1468 1468 1468 1468 1468 1468 1468 1468 1468 1468 1468 1468 1468 1468 1467 1467 1466 1466 1465 1465 1465 1465 1465 1465 1466 1466 1466 1466 1466 1467 1467 1468 1468 1468 1468 1468 1468 1468 1468 1467 1467 1467 1467 1467 1467 1466 1466 1467 1467 1467 1467 1467 1467 1467 1468 1468 1468 1468 1468 1469 1469 1470 1470 1471
1467 1467 1467 1467 1467 1467 1467 1467 1467 1467 1467 1467 1467 1467 1466 1466 1466 1466 1465 1465 1465 1465 1464 1464 1464 1463 1463 1464 1464 1464 1464 1465 1465 1465 1466 1466 1466 1466 1466 1466 1466 1466 1466 1465 1465 1465 1465 1465 1465 1465 1465 1465 1465 1465 1465 1465 1465 1466 1466 1466 1466 1467 1467 1467 1467 1468 1468 1468 1469
1466 1466 1466 1466 1466 1466 1466 1465 1465 1465 1465 1464 1464 1464 1464 1464 1464 1464 1463 1463 1463 1463 1463 1463 1463 1463 1463 1463 1463 1463 1463 1463 1464 1464 1464 1464 1464 1464 1464 1465 1465 1464 1464 1463 1463 1463 1463 1463 1463 1463 1463 1464 1464 1464 1464 1464 1464 1464 1465 1465 1465 1465 1465 1466 1466 1466 1467 1467 1468
1465 1465 1465 1464 1464 1464 1464 1464 1463 1463 1463 1463 1463 1463 1462 1462 1462 1462 1462 1461 1461 1462 1462 1462 1461 1462 1462 1462 1462 1462 1462 1462 1463 1463 1463 1463 1463 1463 1463 1463 1463 1463 1462 1462 1462 1462 1462 1462 1462 1462 1462 1462 1462 1463 1463 1463 1463 1464 1464 1464 1464 1464 1464 1464 1465 1465 1466 1466 1467
1464 1463 1463 1463 1463 1463 1463 1462 1462 1461 1461 1461 1461 1460 1460 1460 1460 1460 1459 1459 1459 1459 1460 1460 1460 1461 1461 1461 1461 1461 1461 1461 1462 1462 1463 1463 1463 1462 1462 1462 1461 1461 1460 1460 1460 1460 1460 1460 1460 1461 1461 1461 1461 1461 1461 1462 1462 1463 1463 1463 1463 1463 1463 1464 1464 1465 1465 1466 1466
1463 1462 1462 1462 1462 1461 1461 1460 1460 1460 1459 1459 1459 1458 1458 1458 1458 1458 1458 1457 1457 1457 1457 1457 1458 1459 1460 1461 1461 1461 1460 1460 1461 1462 1462 1462 1462 1461 1461 1460 1460 1459 1459 1459 1459 1459 1459 1459 1459 1459 1459 1459 1460 1460 1460 1461 1461 1461 1462 1462 1462 1463 1463 1464 1464 1465 1466 1466 1467
1461 1461 1461 1460 1460 1460 1459 1459 1458 1458 1457 1457 1457 1457 1456 1456 1456 1456 1456 1455 1455 1455 1455 1455 1455 1457 1458 1460 1460 1460 1459 1459 1460 1461 1461 1461 1461 1460 1459 1459 1458 1458 1458 1458 1458 1458 1458 1458 1458 1458 1458 1458 1459 1459 1459 1460 1460 1461 1461 1462 1462 1463 1463 1464 1465 1466 1467 1468 1469
1460 1460 1459 1459 1458 1458 1458 1457 1456 1456 1456 1455 1455 1455 1455 1454 1454 1454 1454 1454 1453 1453 1453 1453 1453 1454 1455 1457 1458 1458 1458 1459 1460 1460 1460 1460 1459 1458 1458 1458 1457 1457 1457 1456 1456 1456 1456 1457 1457 1457 1458 1458 1458 1458 1459 1459 1460 1460 1461 1462 1462 1463 1464 1465 1466 1467 1468 1469 1470
1458 1458 1458 1457 1457 1456 1456 1455 1455 1454 1454 1454 1454 1453 1453 1453 1453 1453 1453 1453 1453 1452 1452 1452 1452 1452 1453 1453 1454 1455 1456 1458 1459 1459 1459 1458 1458 1457 1457 1456 1456 1455 1455 1455 1456 1456 1456 1456 1457 1457 1457 1458 1458 1458 1458 1459 1459 1460 1461 1461 1462 1463 1464 1465 1467 1468 1469 1470 1470
1457 1456 1456 1456 1455 1455 1454 1454 1453 1453 1453 1453 1453 1453 1452 1452 1452 1452 1452 1452 1452 1451 1451 1451 1451 1452 1452 1452 1452 1453 1454 1456 1457 1457 1457 1456 1456 1456 1455 1455 1454 1454 1455 1455 1456 1456 1456 1456 1457 1457 1457 1457 1457 1458 1458 1458 1459 1460 1461 1462 1463 1464 1465 1466 1467 1468 1469 1469 1470
1455 1454 1454 1454 1453 1453 1453 1453 1452 1452 1452 1452 1452 1452 1451 1451 1451 1451 1451 1451 1451 1451 1451 1451 1451 1451 1451 1451 1452 1452 1452 1453 1454 1454 1454 1454 1454 1454 1454 1454 1454 1455 1455 1455 1456 1456 1456 1456 1456 1456 1456 1456 1457 1457 1457 1458 1459 1460 1461 1462 1463 1464 1465 1466 1467 1468 1468 1469 1469
1453 1453 1452 1452 1452 1452 1451 1451 1451 1451 1450 1450 1450 1450 1450 1450 1450 1450 1450 1450 1450 1450 1450 1450 1450 1450 1450 1451 1451 1451 1451 1452 1452 1452 1452 1453 1453 1453 1454 1455 1455 1455 1455 1455 1456 1456 1456 1456 1455 1455 1456 1456 1456 1457 1457 1458 1459 1460 1461 1462 1463 1463 1464 1465 1467 1468 1468 1468 1469
1451 1451 1451 1450 1450 1450 1450 1450 1449 1449 1449 1449 1449 1449 1449 1449 1449 1449 1449 1449 1449 1449 1449 1449 1449 1449 1450 1450 1450 1450 1450 1450 1451 1451 1451 1452 1453 1453 1454 1454 1455 1455 1455 1455 1455 1455 1455 1455 1455 1455 1455 1456 1456 1457 1458 1458 1459 1460 1461 1462 1463 1463 1464 1466 1467 1467 1468 1468 1468
1450 1450 1449 1449 1449 1449 1448 1448 1448 1448 1448 1448 1448 1448 1448 1448 1448 1448 1448 1448 1448 1448 1448 1448 1448 1449 1449 1449 1449 1449 1449 1450 1450 1451 1451 1452 1453 1453 1453 1453 1454 1454 1454 1454 1454 1454 1454 1454 1454 1455 1455 1456 1457 1457 1458 1458 1459 1460 1461 1462 1463 1463 1465 1466 1467 1467 1468 1468 1468
1449 1448 1448 1448 1448 1448 1448 1447 1447 1447 1447 1447 1447 1448 1448 1448 1448 1448 1448 1448 1448 1448 1448 1448 1448 1448 1448 1449 1449 1449 1450 1450 1450 1451 1452 1452 1452 1453 1453 1453 1453 1453 1453 1453 1453 1453 1454 1454 1454 1455 1456 1456 1457 1457 1458 1458 1459 1460 1461 1462 1463 1464 1465 1466 1467 1467 1468 1468 1468
1448 1448 1448 1448 1447 1447 1447 1447 1446 1446 1446 1447 1447 1447 1447 1447 1447 1447 1447 1447 1447 1447 1447 1448 1448 1448 1448 1448 1449 1449 1450 1450 1451 1451 1451 1452 1452 1452 1452 1452 1452 1452 1453 1453 1453 1453 1454 1454 1455 1455 1456 1456 1457 1457 1458 1459 1460 1461 1462 1463 1463 1464 1465 1466 1467 1467 1468 1468 1468
1448 1447 1447 1447 1447 1447 1446 1446 1446 1446 1446 1446 1446 1446 1447 1447 1447 1447 1447 1447 1447 1448 1448 1448 1448 1448 1448 1449 1449 1449 1450 1450 1451 1451 1451 1452 1452 1452 1452 1452 1452 1452 1453 1453 1453 1453 1454 1454 1455 1456 1456 1457 1457 1458 1458 1459 1460 1461 1462 1463 1463 1464 1465 1466 1466 1467 1467 1467 1468
1447 1447 1447 1447 1447 1446 1446 1446 1446 1446 1446 1446 1446 1446 1446 1447 1447 1447 1447 1447 1448 1448 1448 1448 1448 1448 1449 1449 1449 1450 1450 1450 1451 1451 1451 1452 1452 1452 1452 1452 1452 1453 1453 1453 1454 1454 1454 1455 1455 1456 1457 1457 1458 1458 1459 1460 1461 1461 1462 1463 1464 1465 1465 1466 1466 1466 1467 1467 1467
1447 1447 1447 1447 1446 1446 1446 1446 1446 1446 1446 1446 1446 1446 1446 1447 1447 1447 1447 1447 1448 1448 1448 1448 1448 1448 1449 1449 1450 1450 1450 1451 1451 1452 1452 1452 1453 1453 1453 1453 1453 1453 1454 1454 1454 1454 1455 1455 1456 1456 1457 1458 1458 1459 1460 1460 1461 1462 1463 1463 1464 1464 1465 1465 1466 1466 1466 1466 1466
1447 1447 1447 1447 1446 1446 1446 1446 1446 1446 1446 1446 1446 1447 1447 1447 1447 1447 1447 1447 1448 1448 1448 1448 1448 1449 1449 1449 1450 1451 1451 1451 1452 1452 1453 1453 1453 1454 1454 1454 1454 1454 1455 1455 1455 1455 1455 1456 1456 1457 1458 1458 1459 1460 1460 1461 1462 1462 1463 1463 1464 1464 1465 1465 1465 1465 1465 1465 1465
1448 1447 1447 1447 1447 1446 1446 1446 1446 1446 1446 1447 1447 1447 1447 1447 1447 1447 1448 1448 1448 1448 1448 1449 1449 1449 1450 1450 1451 1451 1452 1452 1453 1453 1454 1454 1454 1454 1454 1454 1455 1455 1455 1455 1456 1456 1456 1457 1458 1458 1458 1459 1460 1460 1461 1461 1462 1463 1463 1463 1464 1464 1464 1464 1464 1465 1465 1464 1464
1448 1448 1447 1447 1447 1447 1447 1447 1447 1447 1447 1447 1447 1447 1448 1448 1448 1448 1448 1448 1448 1448 1449 1449 1450 1450 1450 1451 1451 1452 1453 1453 1453 1454 1454 1454 1454 1454 1454 1455 1455 1456 1456 1456 1457 1457 1458 1458 1458 1459 1459 1460 1460 1461 1461 1462 1462 1463 1463 1463 1463 1464 1464 1464 1464 1464 1464 1464 1464
1448 1448 1448 1448 1448 1447 1447 1447 1447 1447 1448 1448 1448 1448 1448 1448 1448 1448 1448 1449 1449 1449 1449 1450 1450 1451 1451 1452 1452 1453 1453 1453 1454 1454 1454 1455 1455 1455 1456 1456 1457 1457 1458 1458 1458 1458 1458 1459 1459 1459 1460 1460 1461 1461 1462 1462 1462 1463 1463 1463 1463 1463 1463 1463 1463 1463 1463 1463 1463
1449 1448 1448 1448 1448 1448 1448 1448 1448 1448 1448 1448 1448 1448 1449 1449 1449 1449 1449 1449 1450 1450 1450 1451 1451 1451 1452 1452 1453 1453 1454 1454 1455 1455 1456 1456 1456 1457 1457 1458 1458 1458 1458 1459 1459 1459 1459 1460 1460 1460 1461 1461 1461 1461 1462 1462 1462 1462 1463 1463 1463 1463 1463 1463 1463 1463 1463 1463 1463
1449 1449 1449 1449 1449 1449 1449 1449 1449 1449 1449 1449 1449 1449 1449 1449 1450 1450 1450 1450 1451 1451 1451 1452 1452 1453 1453 1453 1454 1455 1455 1456 1456 1457 1457 1458 1458 1458 1458 1458 1459 1459 1459 1460 1460 1460 1460 1460 1460 1461 1461 1461 1461 1462 1462 1462 1462 1462 1462 1462 1462 1463 1463 1463 1463 1463 1463 1463 1463
1450 1450 1450 1449 1449 1449 1449 1449 1449 1449 1449 1449 1450 1450 1450 1450 1450 1451 1451 1452 1452 1452 1452 1453 1453 1453 1454 1455 1455 1456 1457 1457 1458 1458 1458 1459 1459 1459 1459 1460 1460 1460 1460 1460 1460 1460 1461 1461 1461 1461 1461 1461 1461 1461 1461 1462 1462 1462 1462 1462 1462 1463 1463 1462 1462 1462 1462 1462 1462
1450 1450 1450 1450 1450 1450 1450 1450 1450 1450 1450 1450 1450 1451 1451 1451 1451 1452 1453 1453 1453 1453 1453 1454 1454 1455 1456 1457 1457 1458 1458 1459 1459 1460 1460 1460 1461 1461 1461 1461 1461 1461 1461 1461 1461 1461 1461 1461 1461 1461 1461 1461 1461 1462 1462 1462 1462 1462 1462 1462 1462 1462 1462 1462 1462 1462 1462 1462 1462
1451 1451 1451 1451 1451 1451 1451 1451 1451 1451 1451 1451 1452 1452 1452 1453 1453 1453 1454 1454 1455 1455 1455 1456 1456 1457 1458 1458 1459 1459 1460 1460 1461 1461 1461 1461 1461 1461 1461 1461 1461 1461 1461 1461 1461 1461 1461 1461 1461 1462 1462 1462 1462 1462 1462 1462 1462 1462 1462 1462 1462 1462 1462 1462 1462 1462 1462 1461 1461
1452 1452 1452 1452 1452 1452 1452 1452 1452 1452 1453 1453 1453 1453 1453 1454 1454 1455 1455 1456 1456 1457 1457 1457 1458 1458 1459 1460 1460 1461 1461 1462 1462 1462 1462 1462 1462 1462 1462 1462 1462 1461 1462 1462 1462 1462 1462 1462 1463 1463 1463 1462 1462 1462 1462 1462 1462 1462 1462 1462 1462 1462 1462 1462 1461 1461 1461 1460 1460
1453 1453 1453 1453 1453 1453 1453 1453 1453 1453 1454 1454 1454 1455 1455 1455 1456 1456 1457 1457 1458 1458 1458 1459 1459 1460 1461 1461 1462 1462 1463 1463 1463 1463 1463 1463 1463 1462 1462 1462 1462 1462 1463 1463 1463 1463 1463 1463 1463 1463 1463 1463 1463 1463 1463 1463 1462 1462 1462 1462 1462 1462 1462 1461 1461 1461 1460 1460 1460
Wind_Speed
25 25 26 26 26 26 25 24 23 23 24 24 23 23 23 23 23 22 22 22 23 24 25 25 26 28 30 32 33 33 34 34 34 35 35 35 35 35 34 34 33 34 35 33 29 26 24 22 20 20 20 20 20 21 21 22 23 24 25 27 32 39 42 43 42 43 43 43 42
23 23 24 24 25 26 26 25 24 23 22 22 23 23 22 21 21 21 20 20 21 22 22 22 23 24 27 29 30 31 31 32 32 32 32 32 33 33 33 32 33 34 34 32 30 27 25 23 22 22 22 22 22 23 23 23 23 23 22 23 28 33 37 38 38 38 38 40 40
16 17 18 20 21 22 23 24 23 22 20 19 20 21 21 20 21 20 20 20 20 20 21 21 21 23 25 27 28 28 28 29 29 30 30 30 30 30 30 30 31 33 34 33 30 28 27 25 24 23 24 24 25 26 26 27 27 26 24 23 25 30 34 35 34 34 35 36 37
9 10 11 12 14 16 18 20 20 19 17 17 17 18 19 20 19 19 19 19 19 19 19 20 21 23 25 26 27 26 26 27 27 28 28 28 28 28 28 29 31 33 34 33 32 30 29 28 27 26 26 27 28 29 30 31 31 30 29 27 27 29 31 33 33 34 34 35 36
6 6 6 7 8 10 12 14 16 17 17 16 16 17 17 18 19 19 20 20 20 19 18 19 21 24 26 26 26 27 27 27 27 27 27 27 27 27 27 27 29 31 32 33 32 31 30 30 30 29 30 31 32 33 34 33 32 31 31 31 31 32 32 32 33 33 34 34 35
6 6 6 6 6 7 8 9 11 14 16 17 17 16 16 17 19 19 20 21 21 20 20 21 23 25 26 26 26 27 27 28 28 29 29 28 28 27 27 26 27 28 30 31 31 30 31 32 32 32 32 32 33 35 35 34 32 31 31 32 33 33 32 32 32 33 33 34 36
7 7 7 7 6 6 6 7 8 9 12 14 17 18 18 18 18 18 18 20 20 20 21 22 25 25 25 24 25 26 27 28 29 30 30 30 29 29 27 27 26 27 27 28 29 30 31 32 33 33 32 32 32 33 33 33 33 32 32 32 33 33 32 32 32 32 33 35 37
8 7 7 7 6 6 6 6 6 7 8 10 12 14 17 19 19 19 19 18 18 19 21 23 24 24 23 22 23 25 27 28 29 30 31 31 30 29 28 28 27 27 27 27 28 29 30 30 30 31 32 33 33 32 31 32 33 33 33 32 32 32 32 32 32 33 33 35 38
10 10 10 10 11 10 10 10 9 9 9 9 10 11 13 15 17 18 19 19 20 21 22 23 23 22 22 22 22 24 26 27 28 30 30 30 30 29 28 28 28 28 28 27 26 26 26 26 27 29 30 31 32 32 33 34 35 34 33 32 32 32 32 33 33 33 34 36 39
14 14 15 16 16 16 16 15 15 15 15 15 14 14 14 14 14 16 17 19 20 21 22 22 22 22 22 22 23 23 25 26 27 28 28 28 28 28 27 27 27 27 26 25 24 24 24 25 26 27 29 32 34 36 36 36 35 34 32 32 32 33 33 34 34 34 35 37 40
17 18 18 19 19 19 20 20 20 20 20 20 20 20 20 19 17 16 16 17 18 20 21 21 22 22 22 22 22 23 24 25 26 27 27 26 26 26 26 26 26 26 25 25 26 27 27 27 27 29 31 33 35 35 35 33 32 32 31 31 32 33 34 34 34 35 36 38 40
19 19 20 20 21 21 22 22 22 22 22 22 22 22 22 22 21 20 19 18 18 18 19 20 21 22 22 22 22 22 23 25 26 26 25 25 25 25 25 25 25 25 26 28 29 29 28 28 28 30 32 33 33 32 31 30 29 29 30 30 31 32 33 34 35 36 37 38 40
19 20 21 21 21 22 22 22 23 23 23 23 23 22 22 22 23 22 21 19 19 19 19 20 21 21 22 21 21 21 22 23 24 25 24 24 24 24 24 24 24 25 27 29 29 28 27 28 29 31 31 31 30 29 28 28 28 29 29 30 31 32 33 33 34 36 37 38 39
20 20 21 21 21 22 22 22 23 23 23 23 23 23 23 22 22 22 21 21 21 21 20 20 20 20 20 20 20 20 21 22 22 23 23 24 24 25 24 24 24 25 26 27 27 27 28 30 31 30 29 28 28 27 28 28 29 29 30 30 31 32 32 33 35 36 37 37 38
19 20 20 21 21 21 21 22 22 23 23 23 23 23 23 22 21 20 21 22 23 23 22 21 20 19 19 18 18 19 19 20 20 22 23 24 25 25 25 24 24 25 26 26 26 28 29 30 29 28 27 27 27 27 27 28 28 29 29 30 30 31 32 33 34 35 36 37 37
20 20 20 20 21 21 22 21 22 22 23 23 23 23 23 22 21 21 21 22 24 25 25 25 23 22 20 18 17 17 18 18 19 20 22 23 24 24 24 25 26 27 27 28 28 29 29 28 27 26 26 26 26 27 27 28 28 29 29 30 30 31 32 33 34 34 35 35 35
20 21 21 21 21 22 22 21 22 22 22 22 23 23 23 22 22 21 21 21 23 25 27 29 28 27 25 23 21 19 18 18 18 20 21 23 24 24 25 27 28 29 29 29 29 29 27 26 25 25 25 26 26 26 27 27 27 28 28 29 30 31 31 32 32 32 32 31 31
21 21 22 22 22 22 21 21 21 22 22 22 22 22 22 21 20 20 20 20 21 23 26 29 31 31 30 29 26 21 18 18 19 21 23 25 26 28 28 29 28 28 28 29 28 27 26 25 25 25 25 25 25 25 25 26 26 26 27 27 28 28 28 28 28 28 27 26 24
21 22 22 22 22 22 22 22 22 22 23 22 22 22 21 20 19 18 18 18 19 20 22 24 26 28 29 29 25 22 20 21 22 23 25 27 30 31 30 29 28 28 28 28 27 26 25 24 24 24 23 23 23 23 23 23 23 24 24 24 24 24 24 24 23 22 21 19 17
22 22 22 22 22 21 22 22 22 22 22 22 21 20 19 18 16 14 13 13 15 15 16 17 18 20 22 23 23 24 26 27 27 27 28 30 31 31 30 29 29 28 28 27 26 24 23 23 22 21 20 20 20 19 19 19 19 20 19 19 19 18 18 18 17 16 15 14 13
21 21 21 21 20 20 20 20 21 20 20 19 17 16 14 13 11 10 10 11 12 12 12 13 13 15 16 18 21 24 27 28 28 28 30 31 31 30 29 29 28 27 25 24 22 21 20 19 18 17 17 16 16 15 15 15 15 14 14 14 13 13 13 12 12 13 13 13 14
19 19 19 19 18 18 18 17 17 16 15 13 12 10 9 9 8 8 9 10 11 12 12 12 12 13 14 15 17 19 22 23 25 27 29 30 29 28 27 26 24 23 21 20 18 17 16 15 14 13 13 12 12 11 10 10 9 9 9 10 10 10 10 11 12 13 15 16 16
16 16 16 15 15 14 13 12 11 9 8 8 7 7 7 7 8 9 10 11 12 13 13 13 13 13 13 14 16 17 18 20 23 25 26 27 26 25 24 22 20 18 17 15 14 12 11 10 9 9 8 8 8 7 6 5 6 7 8 9 9 10 11 12 14 16 17 17 17
12 12 11 11 10 9 8 7 5 5 5 5 6 6 7 7 9 10 11 13 14 16 17 17 17 16 16 16 17 17 18 20 21 23 24 23 22 21 19 18 15 13 12 10 9 8 6 5 5 5 5 4 4 4 4 5 6 7 8 9 10 11 13 15 17 17 17 16 15
7 6 6 5 5 5 4 3 3 3 4 4 5 6 7 8 10 11 13 14 16 17 18 19 19 18 18 18 17 17 18 19 19 19 19 17 16 15 13 11 10 8 7 6 5 3 2 2 2 1 2 2 4 5 6 7 7 8 9 10 11 13 16 17 18 17 16 14 13
1 1 1 1 1 1 1 2 2 3 4 4 5 6 8 10 11 12 13 15 16 17 18 18 18 18 18 17 17 17 16 16 15 14 12 11 9 8 7 6 5 4 3 2 1 1 1 1 1 1 2 3 5 6 7 8 8 9 10 12 14 16 17 17 16 14 13 12 11
3 3 3 3 3 3 4 4 4 5 5 6 7 8 9 11 12 13 14 14 15 16 16 16 16 15 14 14 14 13 12 11 9 8 6 5 4 3 3 2 2 2 2 2 2 3 3 3 3 3 3 4 6 7 8 9 10 12 13 15 16 16 16 15 13 12 11 10 10
6 6 6 6 6 7 7 6 6 6 7 8 8 9 11 12 12 12 12 13 13 13 13 12 11 11 10 9 8 7 6 5 4 3 2 2 2 3 3 4 4 4 4 4 4 4 4 4 4 4 4 5 6 7 9 10 12 14 15 15 15 14 13 12 11 10 9 9 9
8 8 8 8 8 8 8 8 8 8 9 9 10 10 11 11 11 10 10 10 9 8 8 8 7 7 7 6 5 3 2 1 1 2 3 4 5 5 6 6 6 6 5 5 4 4 4 5 5 5 6 7 8 9 11 12 14 15 15 14 13 12 11 10 9 9 9 9 10
9 10 10 10 9 9 10 10 9 9 10 10 10 10 10 9 9 8 7 7 6 5 5 4 4 4 3 2 1 0 2 3 4 5 6 7 8 8 8 8 8 8 7 6 5 4 5 5 6 7 8 9 10 11 12 13 13 13 13 12 11 10 10 9 9 9 10 10 10
10 10 10 10 10 10 10 10 10 10 10 10 9 9 8 8 7 7 6 6 5 4 4 3 2 2 2 2 3 4 5 6 7 8 9 10 11 11 11 11 11 10 9 7 5 5 5 6 8 9 10 10 11 11 12 12 12 12 11 10 10 10 10 10 10 10 10 11 11
10 10 10 10 10 10 10 10 10 9 9 8 8 8 7 7 7 6 6 5 5 4 4 4 4 4 5 5 6 7 8 10 10 11 11 12 12 13 13 13 12 11 9 7 5 5 6 7 9 10 10 11 11 11 11 11 11 10 10 10 9 9 10 10 10 10 11 11 11
10 10 10 10 10 10 9 9 9 9 8 8 7 7 7 7 6 6 5 5 5 5 5 5 6 6 7 8 9 10 11 11 12 11 11 11 11 12 12 12 11 10 7 6 5 6 7 8 9 10 10 10 10 10 10 10 9 9 9 9 9 9 10 10 10 10 10 9 9
11 11 11 11 10 10 10 9 9 9 8 8 7 7 7 7 7 6 6 6 6 6 7 7 7 8 8 9 10 11 11 12 11 11 10 10 9 9 10 10 10 8 7 6 6 6 7 8 9 9 9 9 9 9 9 8 8 9 9 9 9 9 9 9 8 8 8 7 7
12 12 12 11 11 10 10 10 9 9 8 8 8 8 7 7 7 7 7 7 7 8 8 8 9 9 9 10 10 10 11 11 11 10 10 9 9 9 9 9 9 8 7 6 6 7 7 8 8 8 8 8 7 8 8 8 8 8 8 8 7 7 6 6 6 5 5 5 5
12 12 12 11 11 11 10 10 10 9 9 8 8 8 8 8 8 9 9 8 8 9 9 10 10 10 11 11 10 10 10 11 11 10 10 9 9 8 8 8 8 8 7 6 6 6 7 7 7 7 7 7 7 7 7 6 6 5 5 5 4 4 4 4 4 4 4 4 5
12 12 11 11 11 11 10 10 10 9 9 9 9 9 9 9 10 10 10 9 10 10 11 11 11 11 11 11 11 11 10 10 10 10 10 9 8 7 7 7 7 7 6 6 6 6 6 6 6 6 5 5 4 4 3 3 2 2 2 2 2 2 3 3 3 4 5 5 6
12 12 11 11 11 11 11 11 10 10 10 10 10 10 10 11 11 11 11 11 11 12 12 13 12 12 12 11 11 11 11 10 10 9 9 8 7 6 6 6 6 6 5 5 4 4 4 4 3 3 2 1 0 1 1 1 1 1 2 2 2 3 3 3 4 4 5 5 5
13 12 12 12 12 12 12 12 12 12 12 12 12 12 12 13 13 13 13 13 13 13 14 14 13 13 12 11 11 11 11 10 10 9 8 7 6 5 4 4 4 4 4 3 3 3 2 2 3 3 3 3 3 3 3 3 2 2 2 2 2 3 3 3 3 4 4 5 5
14 13 13 13 14 14 14 14 14 14 14 14 15 15 15 15 16 16 16 15 15 15 15 14 14 13 12 11 11 11 10 10 9 7 6 5 4 4 3 3 4 4 5 5 5 5 5 5 5 5 5 4 4 4 3 3 3 2 2 2 2 2 2 2 3 3 4 5 5
16 16 15 16 16 16 16 16 17 17 17 17 17 18 18 18 17 17 17 16 16 15 15 14 13 12 11 10 10 9 9 8 6 5 4 4 4 5 5 5 6 6 7 7 7 7 6 6 5 5 5 4 4 4 3 3 3 2 2 2 2 2 2 2 3 3 4 5 5
Wind_Direction
251 250 250 250 249 248 246 245 244 244 245 246 246 248 251 253 255 257 258 258 260 261 262 261 261 261 262 263 263 263 264 264 264 265 265 267 268 269 270 271 273 273 271 264 257 251 247 246 245 246 247 250 255 259 263 265 266 266 266 266 263 260 259 258 256 256 257 259 260
253 252 251 250 249 249 248 247 246 246 245 246 247 247 249 251 253 254 255 256 258 260 262 262 261 261 262 262 262 262 263 263 263 264 265 266 267 268 270 271 272 272 268 260 254 248 244 242 243 244 247 251 256 260 262 263 263 264 265 268 266 264 262 259 257 257 258 258 258
257 255 254 253 251 250 249 248 248 248 248 248 249 249 250 252 253 254 254 255 257 258 259 260 260 260 261 262 262 263 263 264 264 264 265 265 266 267 268 269 270 269 265 259 253 247 243 241 242 245 250 255 259 262 263 262 260 259 259 261 263 264 264 262 261 259 258 257 255
260 260 259 258 257 255 253 252 250 249 249 251 251 250 250 250 251 253 254 256 256 256 257 258 260 260 261 262 264 266 267 267 267 267 267 267 266 266 267 268 269 268 265 260 254 248 243 242 243 246 252 257 261 263 264 264 262 260 259 258 258 261 263 265 264 262 259 256 252
256 257 259 261 262 261 259 258 256 253 250 248 249 249 248 248 249 251 253 255 255 255 256 257 259 260 261 265 268 271 272 272 272 271 270 269 268 267 267 268 269 269 267 264 259 254 249 246 247 250 256 261 264 267 268 266 264 262 260 259 259 259 261 263 265 263 260 255 250
246 247 249 251 256 261 264 264 264 262 257 252 249 248 249 247 249 251 254 257 258 257 257 257 258 259 263 268 272 275 276 276 276 275 273 272 271 270 270 270 270 270 270 269 267 263 258 254 253 255 260 265 269 272 272 268 265 262 260 259 259 259 260 262 263 262 258 252 247
243 243 244 245 247 254 262 266 268 269 268 264 258 255 252 250 250 251 255 259 260 259 258 257 258 262 266 271 274 276 276 277 276 276 275 274 273 272 271 271 270 271 271 271 270 267 263 259 259 260 263 267 270 273 274 273 268 264 261 259 259 260 262 264 264 261 256 251 246
250 253 256 258 260 264 272 277 277 278 279 277 274 269 264 259 255 253 253 255 256 257 259 259 261 265 270 274 275 275 275 275 275 274 274 274 274 273 273 272 270 269 268 267 268 267 266 265 266 267 268 268 270 272 274 274 271 268 264 262 262 264 266 267 265 261 256 250 246
271 277 280 283 283 283 284 287 288 290 291 291 291 289 284 276 267 261 257 254 253 254 257 260 264 268 272 274 274 273 272 272 273 273 274 274 275 275 275 274 271 267 265 265 269 270 270 270 270 270 270 270 270 270 270 269 270 269 266 264 265 266 267 267 265 261 255 250 245
282 285 287 289 289 287 286 287 289 290 291 292 294 296 298 296 289 279 271 265 261 258 258 260 264 268 271 273 273 273 272 272 272 273 275 276 277 277 277 275 273 269 267 268 270 269 268 268 270 272 272 271 269 268 267 267 268 268 267 267 266 267 267 266 264 259 254 249 245
287 288 290 290 290 289 289 290 291 291 291 291 292 293 295 296 296 293 288 282 277 271 266 265 266 268 270 272 273 274 275 275 275 275 276 277 277 277 276 274 272 271 270 269 268 267 267 270 272 274 274 273 270 269 269 269 269 268 268 267 267 267 266 265 262 258 253 249 245
293 293 293 292 291 292 292 293 293 293 293 293 292 291 291 291 291 292 292 291 287 281 275 271 269 269 271 272 273 274 275 276 277 277 277 277 276 275 274 273 272 272 270 268 267 268 271 274 275 274 274 273 273 272 271 271 270 268 267 267 266 265 264 262 260 256 252 248 244
295 296 296 295 294 294 295 295 295 295 294 293 292 290 289 287 288 288 289 289 289 286 279 273 272 271 272 273 273 273 274 275 277 278 278 277 275 274 273 273 274 273 271 269 269 271 273 274 273 272 272 272 272 271 271 270 268 267 266 265 264 263 261 259 257 254 251 247 243
295 295 295 295 295 295 295 295 295 294 293 292 291 289 287 286 285 284 284 284 287 286 282 276 272 271 271 272 272 272 272 274 277 278 278 277 276 274 274 274 274 273 273 272 272 273 273 272 271 270 270 269 269 269 269 268 268 267 266 265 263 261 259 257 255 252 249 245 242
294 294 294 294 294 294 294 294 293 292 291 291 290 289 287 285 282 279 279 280 281 283 283 281 278 275 273 272 271 272 273 274 276 278 278 278 277 276 275 275 274 273 273 273 273 272 271 270 269 268 268 266 266 266 267 266 266 265 264 262 261 259 257 255 253 250 247 244 240
296 295 295 295 295 294 294 293 291 290 290 289 289 288 287 284 281 278 276 276 276 276 277 279 282 284 285 283 279 276 276 276 278 278 279 278 278 277 276 275 274 273 273 273 273 271 269 268 267 266 265 263 263 263 263 263 263 262 261 260 259 258 256 255 252 248 245 241 237
297 297 297 297 296 295 294 292 290 289 288 288 287 286 285 284 281 278 276 273 272 270 269 269 271 276 282 285 283 279 278 279 281 281 280 279 278 276 275 274 274 274 274 274 272 270 268 266 265 263 262 261 260 261 261 261 261 261 260 260 259 258 256 254 250 245 241 237 234
297 297 296 296 296 295 293 291 290 289 288 287 286 285 285 283 280 277 274 271 268 265 263 261 260 262 266 271 274 276 279 282 283 282 280 277 274 272 271 271 272 273 273 272 270 268 265 263 262 261 260 260 260 261 262 263 263 264 264 263 261 259 255 251 246 242 238 236 234
295 294 294 293 292 291 290 289 288 288 287 287 287 286 285 283 280 276 273 270 267 264 261 258 256 254 254 257 262 270 278 283 282 279 276 273 270 268 268 268 269 269 268 267 266 264 262 261 260 260 261 263 265 266 267 267 267 267 266 264 261 256 251 246 242 239 237 235 233
293 292 291 289 288 287 286 286 286 286 286 286 287 288 287 284 282 279 278 278 275 271 266 261 256 253 251 251 256 263 270 273 274 272 270 268 267 266 266 266 265 264 264 263 262 262 262 261 262 264 267 270 272 273 273 272 270 267 264 260 255 249 244 240 237 234 231 227 220
290 288 287 286 285 283 282 282 282 283 284 287 289 290 290 288 286 285 284 285 284 281 276 270 265 261 258 256 255 256 258 260 261 263 264 264 264 264 264 263 263 263 263 263 263 264 265 266 270 273 276 279 280 280 279 275 270 263 256 248 239 233 228 225 222 219 214 209 204
285 284 282 281 280 279 278 277 278 281 285 290 293 297 298 296 293 288 285 283 283 283 281 277 272 268 266 264 260 255 253 253 256 259 261 262 261 261 261 262 263 265 266 267 269 270 273 276 280 283 284 285 285 283 280 273 261 247 234 222 212 207 204 204 204 203 201 199 197
278 277 276 274 272 271 270 270 272 279 287 295 301 306 308 307 302 295 288 283 280 279 277 274 270 267 266 265 265 263 262 262 263 263 262 261 260 261 262 264 268 270 273 274 276 279 283 287 290 291 290 288 284 277 264 246 227 211 200 193 188 188 190 193 196 197 197 195 195
270 268 265 262 258 255 254 255 260 274 291 301 309 313 314 313 311 307 301 294 287 282 277 274 271 268 267 268 269 271 272 272 270 267 265 263 263 263 266 269 272 274 277 279 282 285 290 296 301 299 290 278 261 237 211 193 184 180 179 179 180 184 189 193 194 194 194 194 194
260 254 246 238 230 228 232 244 266 298 315 319 322 322 323 324 325 323 316 307 297 289 283 278 276 273 273 273 274 275 275 274 271 269 267 267 267 267 268 270 271 272 274 276 279 282 287 298 311 298 262 223 201 187 177 172 171 172 176 181 185 189 192 193 193 192 192 194 197
247 219 188 173 178 202 273 317 332 340 343 345 343 340 339 340 337 330 320 309 298 290 283 279 276 274 274 274 275 275 274 273 272 272 272 272 270 268 265 263 260 259 258 253 236 180 137 125 126 143 167 176 173 168 165 165 170 177 183 188 191 193 193 192 191 192 195 200 206
52 53 52 56 44 25 16 17 17 12 7 4 360 354 350 346 339 330 319 309 299 290 284 278 275 273 273 274 275 276 277 276 276 274 270 266 259 245 228 214 204 192 170 145 131 125 123 124 129 139 153 164 165 165 166 170 178 185 189 192 193 192 192 192 193 197 203 211 217
44 41 39 36 29 25 25 27 22 16 11 8 3 358 351 344 335 327 320 311 302 293 287 283 282 282 284 284 283 282 282 280 274 262 239 205 173 155 146 139 136 130 124 121 122 122 124 128 136 147 162 169 172 174 179 184 188 191 192 192 191 191 192 195 201 208 216 222 228
40 36 31 24 21 20 21 19 15 9 6 4 0 354 347 340 334 329 323 317 310 305 300 299 300 303 303 300 295 288 277 233 157 140 134 129 126 121 118 116 115 115 117 121 127 129 134 140 150 163 174 182 185 187 189 191 192 192 191 190 191 193 198 205 213 220 226 231 235
37 32 27 22 19 18 17 15 11 7 3 -0 356 350 345 342 340 338 337 335 334 332 329 326 326 327 326 324 322 92 120 116 113 112 113 114 113 109 108 109 113 117 122 132 143 149 153 158 166 174 181 187 190 191 191 191 190 189 189 190 195 202 209 217 224 230 235 238 241
34 29 25 21 18 17 15 13 10 7 4 1 358 355 353 354 354 356 356 358 -0 2 4 9 22 46 71 89 100 107 109 109 108 110 112 115 115 116 118 121 125 129 136 147 160 167 168 170 174 178 181 185 187 188 188 187 187 189 193 198 205 213 221 228 233 237 241 244 248
33 29 26 22 20 19 18 17 15 14 12 10 8 7 8 9 11 12 14 17 23 33 45 60 76 89 98 104 108 110 111 113 116 120 125 130 133 136 139 141 142 146 152 161 169 172 173 174 176 177 179 181 183 185 187 188 191 196 203 210 217 224 230 236 240 244 249 255 261
34 33 30 28 26 26 27 27 26 25 24 23 22 22 24 25 29 32 37 44 55 65 73 81 90 98 104 109 114 117 120 124 129 135 143 149 152 153 153 153 152 153 156 161 165 167 170 172 174 176 178 181 184 187 190 195 201 208 216 223 229 234 239 245 251 257 265 273 279
40 38 37 36 36 36 37 38 38 37 36 37 38 40 43 47 50 54 61 68 76 82 87 92 97 103 108 112 118 123 128 132 138 145 151 156 160 159 156 153 150 148 150 155 158 162 166 169 173 176 179 183 188 193 199 206 214 220 227 232 239 246 254 262 269 276 282 288 292
46 44 44 44 45 46 47 47 48 48 49 51 55 59 63 66 68 70 74 79 86 92 97 99 102 105 108 111 116 122 129 136 142 149 155 159 160 157 152 148 144 143 145 150 156 161 165 169 173 178 183 189 196 203 210 217 224 230 237 243 252 263 274 283 289 291 293 293 293
51 50 49 51 53 55 56 57 58 59 62 66 69 73 76 80 81 81 83 87 94 99 103 104 105 108 111 115 119 125 132 139 145 150 155 158 158 154 149 145 142 142 145 151 157 162 167 172 177 183 190 198 205 212 219 226 236 248 261 270 278 285 293 296 299 299 298 296 294
55 54 54 56 60 63 65 66 68 70 74 77 80 82 84 87 88 89 90 94 99 104 105 106 108 110 114 119 125 131 137 142 146 149 151 152 152 148 145 142 141 142 145 151 159 166 173 180 185 191 198 205 213 222 233 245 264 291 306 315 318 314 309 305 302 299 295 292 290
59 59 60 63 67 70 73 74 76 79 82 84 86 88 90 92 92 93 94 97 101 104 105 106 108 110 113 118 124 130 136 140 142 143 142 142 141 139 138 139 141 143 146 149 156 164 173 180 185 190 189 171 91 31 21 19 19 11 358 346 335 323 315 308 301 295 291 289 289
66 66 68 71 73 76 79 81 84 86 87 90 91 93 94 94 94 95 96 98 100 101 103 105 107 109 113 117 122 127 132 135 137 137 136 134 132 130 132 135 136 133 129 123 120 116 103 83 67 60 59 59 58 53 45 36 27 16 359 344 332 321 312 305 301 298 298 300 305
74 76 77 80 82 84 87 89 91 92 93 94 95 95 95 95 96 97 98 99 99 100 102 104 107 110 114 119 123 127 130 134 136 135 133 128 121 113 105 99 93 86 78 72 70 69 68 66 64 60 57 53 49 43 33 23 16 5 352 341 334 333 329 324 320 319 320 322 324
83 85 86 88 89 91 93 95 96 96 96 96 96 96 96 97 98 99 100 101 102 102 104 106 109 113 118 123 126 128 130 131 132 128 117 102 89 79 72 69 70 71 70 69 66 64 62 59 56 52 46 40 34 27 20 14 9 4 359 355 359 4 5 356 344 333 329 327 326